AirNav   Everest Fuels
 
 450 users online  

19LA Self Forward Landing Strip
Leesville, Louisiana, USA

GOING TO LEESVILLE?


FAA INFORMATION EFFECTIVE 16 JULY 2020

Location

FAA Identifier: 19LA
Lat/Long: 31-07-01.2800N 093-09-15.5400W
31-07.021333N 093-09.259000W
31.1170222,-93.1543167
(estimated)
Elevation: 368 ft. / 112 m (estimated)
From city: 6 miles ESE of LEESVILLE, LA
Time zone: UTC -5 (UTC -6 during Standard Time)
Zip code: 71446

Airport Operations

Airport use: Private use. Permission required prior to landing
Activation date: 04/2019
Control tower: no
ARTCC: HOUSTON CENTER
FSS: FORT WORTH FLIGHT SERVICE STATION
Attendance: 
Segmented circle: no

Airport Communications

WX ASOS at POE (5 nm SW): PHONE 337-531-4100
WX AWOS-3PT at DRI (20 nm SW): 118.225 (337-463-8278)

Nearby radio navigation aids

VOR radial/distance  VOR name  Freq  Var
FXUr082/(3.3)POLK VOR108.4002E
AEXr253/34.6ALEXANDRIA VORTAC116.1003E

 
NDB name  Hdg/Dist  Freq  Var  ID
GATOR014/5.635902EGUV --. ..- ...-
DE RIDDER019/23.838504EDXB -.. -..- -...
NATCHITOCHES183/32.740704EOOC --- --- -.-.

Airport Services

Runway Information

Runway 17/35

Dimensions: 3574 x 92 ft. / 1089 x 28 m
Surface: concrete
RUNWAY 17  RUNWAY 35
Traffic pattern: leftright

Airport Ownership and Management from official FAA records

Ownership: U.S. Army
Owner: US ARMY
NORTH FORT POLK
FORT POLK, LA 71459
Phone 337-531-1706
Manager: ALLEN T SEAGLE
7575 DONALDSON LOOP
FORT POLK, LA 71459
Phone 337-531-1151

Airport Operational Statistics

Aircraft based on the field: 1
Helicopters: 1
    

Additional Remarks

FOR CD CTC POLK APCH AT 337-531-2352.

Instrument Procedures

There are no published instrument procedures at 19LA.

Some nearby airports with instrument procedures:

KPOE - Polk Army Airfield (5 nm SW)
L39 - Leesville Airport (10 nm W)
KDRI - Beauregard Regional Airport (20 nm SW)
3R4 - Hart Airport (31 nm NW)
KACP - Allen Parish Airport (33 nm SE)
 
Loc | Ops | Rwys | IFR | FBO | Links
Com | Nav | Svcs | Stats | Notes
Aerial photo
No photo
 
Airport distance calculator
Flying to Self Forward Landing Strip? Find the distance to fly.

From to 19LA

Sunrise and sunset
Times for 12-Aug-2020
 Local
(UTC-5)
 Zulu
(UTC)
Morning civil twilight06:1311:13
Sunrise06:3811:38
Sunset19:5700:57
Evening civil twilight20:2201:22

Current date and time
Zulu (UTC)  12-Aug-2020 06:36:16
Local (UTC-5)  12-Aug-2020 01:36:16
 
METAR
KPOE 
9nm E 
120558Z AUTO 18006KT 10SM CLR 27/24 A3000 RMK AO2 SLP157 T02650243 10322 20265 403520231 50000
KBKB 
14nm SE 
120554Z AUTO VRB03KT 10SM CLR 27/24 A2996 RMK AO2 SLP171 T02670244 10328 20261 403560228 50001
KDRI 
19nm SW 
120615Z AUTO 17004KT 7SM CLR 27/25 A3000 RMK AO2 T02650245
TAF
KPOE 
9nm E 
120000Z 1200/1306 21009KT 9999 FEW050 QNH2994INS BECMG 1211/1212 VRB06KT 8000 BR BKN015 QNH3001INS BECMG 1214/1215 19009KT 9999 NSW SCT025 QNH2992INS TX35/1220Z TN25/1212Z
NOTAMs
Click for the latest NOTAMs
NOTAMs are issued by the DoD/FAA and will open in a separate window not controlled by AirNav.

 

 
 

Would you like to see your business listed on this page?

 If your business provides an interesting product or service to pilots, flight crews, aircraft, or users of the Self Forward Landing Strip, you should consider listing it here.  To start the listing process, click on the button below
 
Add a business
 

Other Pages about Self Forward Landing Strip

Update a link
 
Copyright © AirNav, LLC. All rights reserved. Privacy Policy  Contact